www.pogodaiklimat.ru

Погода и климат >> Архив погоды >> Россия >> Магаданская область >> Остров Спафарьева


ПОГОДА на Остров Спафарьева

  • Прогноз погоды на Остров Спафарьева
  • Монитор погоды на Остров Спафарьева
  • Климат города

АРХИВ ПОГОДЫ на Остров Спафарьева

Время (UTC), дата Ветер
(напр.,м/с)
 
Видим.   Явления Облачность Т
(С)
Тd
(С)
f
(%)
Тe
(С)
Тes
(С)
Комфортность P
(гПа)
Po
(гПа)
Тmin
(С)
Tmax
(С)
R
(мм)
S
(см)
06 17.03 С 5 50 км ясно -1.5 -14.9 35 -7 -6 1015.7 1009.1
09 17.03 С 8-11
{11}
50 км ясно -1.3 -13.5 39 -8 -8 1015.9 1009.3 -0.6
12 17.03 С 7
{11}
50 км ясно -2.0 -13.2 42 -9 -9 1016.3 1009.7
15 17.03 С 9-12
{12}
50 км ясно -2.6 -15.6 36 -10 -10 1015.9 1009.2
18 17.03 С 8-10
{13}
50 км ясно -2.8 -16.2 35 -10 -10 1015.3 1008.7
21 17.03 С 8-11
{11}
50 км 3/0
[Ci fib]
-2.7 -16.4 34 -10 -10 1015.4 1008.7 -4.0 18
00 18.03 СВ 7-11
{13}
50 км 8/0
[Ci fib]
-2.2 -13.7 41 -9 -8 1015.4 1008.7
03 18.03 С 6
{11}
50 км 3/0
[Ci fib]
+0.6 -16.3 27 -5 -3 1014.2 1007.6
06 18.03 С 6
{11}
50 км 8/0
[Ci fib]
+2.4 -15.2 26 -2 -2 1012.9 1006.4
09 18.03 С 6 50 км 8/0
[Ci fib]
+1.1 -16.3 26 -4 -4 1012.7 1006.1 +2.5
12 18.03 СВ 7 50 км 4/0
[Ci fib]
-0.9 -13.8 37 -7 -7 1011.9 1005.3
15 18.03 С 8-10
{10}
50 км 4/0
[Ci fib]
-1.8 -14.9 36 -9 -9 1011.5 1004.9
18 18.03 С 11-13
{14}
50 км 4/0
[Ci fib]
-3.5 -14.0 44 -12 -12 1011.5 1004.9
21 18.03 С 8-12
{13}
50 км 9/0
[Ci fib]
-3.0 -13.8 43 -11 -10 1012.0 1005.3 -3.9 18
00 19.03 С 7 50 км 3/0
[Ci fib]
-3.0 -12.5 48 -10 -9 1011.7 1005.0
03 19.03 С 9-12
{13}
50 км 1/0
[Ac trans]
-1.6 -10.7 50 -9 -9 1010.8 1004.2
06 19.03 С 6
{12}
50 км 4/0
[Ac trans]
-0.5 -11.4 43 -6 -6 1010.6 1003.9
09 19.03 С 9-12
{12}
50 км ясно -2.6 -10.9 53 -11 -11 1010.7 1004.0 -0.4
12 19.03 СВ 12-15
{16}
50 км ясно -4.2 -11.5 57 -14 -14 1010.1 1003.5
15 19.03 СВ 12-14
{17}
50 км ясно -5.4 -11.3 63 -15 -15 1009.5 1002.8
18 19.03 С 8-11
{15}
50 км ясно -5.5 -13.4 54 -14 -14 1009.7 1003.0
21 19.03 С 9-13
{13}
50 км 9/0
[Ac trans]
-5.4 -12.4 58 -14 -14 1009.7 1003.0 -5.7 18
00 20.03 С 9-13
{14}
10 км слабый ливневой снег {метель} 10/10 600 м
[Cb cap]
-5.0 -6.4 90 -14 -14 1009.5 1002.9
03 20.03 С 6-13
{15}
2000 м слабый ливневой снег {метель} 10/10 600 м
[Cb cap]
-4.1 -5.4 91 -12 -12 1008.7 1002.1
06 20.03 СВ 11-16
{16}
4000 м слабый ливневой снег {метель} 10/10 600 м
[Cb cap]
-4.1 -5.5 90 -14 -14 1007.9 1001.3
09 20.03 СВ 13-17
{17}
4000 м слабый ливневой снег {метель} 10/10 600 м
[Cb cap]
-4.2 -5.3 92 -15 -15 1008.3 1001.7 -3.9 1
12 20.03 СВ 16-20
{20}
500 м сильная метель {ливн. осадки} ?/? -4.3 -5.1 94 -16 -16 1008.2 1001.6
15 20.03 СВ 13-17
{20}
500 м сильная метель ?/? -4.0 -4.8 94 -15 -15 1008.8 1002.2
18 20.03 СВ 12-16
{18}
500 м сильная метель ?/? -3.9 -4.7 94 -14 -14 1009.1 1002.5
21 20.03 СВ 14-17
{18}
500 м сильная метель ?/? -3.6 -4.3 95 -14 -14 1009.9 1003.2 -4.4 2 19
00 21.03 СВ 15-17
{18}
500 м сильная метель ?/? -3.2 -4.3 92 -14 -14 1010.9 1004.2
03 21.03 СВ 13-16
{18}
500 м сильная метель ?/? -2.6 -4.0 90 -13 -13 1011.2 1004.6
06 21.03 СВ 6-14
{17}
10 км слабый ливневой снег {метель} 10/10 600 м
[Cb cap]
-0.8 -5.8 69 -7 -7 1012.1 1005.5
09 21.03 В 7-17
{17}
50 км позёмок {ливн. осадки, метель} 10/6 600 м
[Cb cap As trans]
-0.6 -5.4 70 -8 -8 1012.9 1006.3 -0.8 0.9
12 21.03 В 8-15
{17}
50 км сильный позёмок {ливн. осадки, метель} 10/4 600 м
[Cb cap As trans]
-1.3 -6.9 66 -9 -9 1013.4 1006.8
15 21.03 В 8-16
{18}
50 км сильный позёмок {метель} ясно -1.9 -7.4 66 -10 -10 1013.4 1006.8
18 21.03 СВ 8-12
{17}
50 км сильный позёмок {метель} 3/3 600 м
[Sc]
-3.0 -7.5 71 -11 -11 1013.4 1006.7
21 21.03 С 4
{15}
50 км {метель} 9/9 600 м
[Sc]
-2.6 -7.9 67 -8 -8 1013.9 1007.3 -3.5 19
00 22.03 С 5-13
{15}
50 км {метель} 8/3 600 м
[Sc Ac trans Cs]
-1.2 -7.4 63 -7 -6 1014.0 1007.4
03 22.03 С 8-10
{13}
50 км 3/0
[Ac trans Ci fib]
+0.1 -7.7 56 -7 -6 1013.8 1007.2
06 22.03 СВ 4
{12}
50 км 9/9 600 м
[Cb cap]
+0.7 -6.6 58 -4 -4 1013.7 1007.2
09 22.03 СВ 2 50 км 9/9 600 м
[Sc]
+0.7 -5.1 65 -2 -2 1014.3 1007.7 +1.0
12 22.03 С 5 50 км 9/9 600 м
[Sc]
+0.6 -7.0 57 -5 -5 1014.1 1007.5
15 22.03 С 6 50 км 8/8 600 м
[Sc]
-0.3 -8.0 56 -6 -6 1013.6 1007.0
18 22.03 С 10-12
{12}
50 км 8/8 600 м
[Sc]
-1.2 -8.6 57 -9 -9 1013.1 1006.5
21 22.03 С 6
{12}
50 км 9/9 600 м
[Sc]
-1.4 -8.4 59 -8 -8 1013.5 1006.9 -1.7 18
00 23.03 СВ 5
{11}
50 км 9/8 600 м
[Sc Ac trans Ci fib]
-0.3 -7.4 59 -6 -6 1014.1 1007.5
03 23.03 СВ 10-14
{18}
50 км позёмок {метель} 9/4 600 м
[Sc Ac trans Ci fib]
-0.5 -4.7 73 -9 -9 1013.6 1007.0
06 23.03 В 5-11
{20}
50 км {метель} 9/4 600 м
[Sc Ac trans]
+0.9 -4.9 65 -5 -4 1014.1 1007.5
09 23.03 СВ 5-10
{13}
50 км 10/5 600 м
[Sc As trans]
+0.3 -4.5 70 -5 -5 1015.6 1009.0 +1.1
12 23.03 В 9-13
{14}
50 км 9/5 600 м
[Sc Ac trans]
-0.2 -6.4 63 -8 -8 1015.7 1009.1
15 23.03 СВ 7
{14}
50 км {метель} 4/4 600 м
[Sc]
-1.5 -6.6 68 -9 -9 1016.3 1009.7
18 23.03 СВ 7
{14}
50 км {метель} 4/4 600 м
[Sc]
-1.5 -6.4 69 -9 -9 1016.4 1009.7
21 23.03 СВ 7-12
{12}
50 км {метель} 9/9 600 м
[Sc]
-1.3 -7.3 64 -8 -8 1016.1 1009.3 -1.6
00 24.03 СВ 8-10
{12}
50 км позёмок {метель} 9/9 600 м
[Cb cap]
-2.3 -6.8 71 -10 -10 1016.1 1009.4
03 24.03 СВ 4
{10}
50 км {метель} 9/9 600 м
[Cb cap]
-1.1 -8.5 57 -6 -6 1015.6 1009.0

 

Местоположение метеостанции Остров Спафарьева (Магаданская область, Россия): широта 59.15 долгота 149.00 высота над уровнем моря 52 м.

В архиве по умолчанию представлена погода на Остров Спафарьева за последнюю неделю. Архивные данные за месяц целиком и за предыдущие месяцы, начиная с января 2011 года, Вы можете получить, выбрав интересующий диапазон дат из раскрывающегося списка и нажав кнопку "Ввод!".

Внимание! Время в таблицах - всемирное. Для получения местного времени необходимо прибавить поправку, которая на Остров Спафарьева равна 11 ч.

Смотрите также архив погоды в соседних городах и на ближайших метеорологических станциях:

Погода в Талоне (Магаданская область, Россия) (72 км)
Погода в Армани (Магаданская область, Россия) (84 км)
Погода в Магадане (Магаданская область, Россия) (106 км)
Погода в Оле (Магаданская область, Россия) (133 км)
Погода на Мысе Алевина (Магаданская область, Россия) (137 км)
Погода в Палатке (Магаданская область, Россия) (150 км)
Погода в Мадауне (Магаданская область, Россия) (187 км)
Погода в Усть-Омчуге (Магаданская область, Россия) (222 км)
Погода на Мысе Братьев (Магаданская область, Россия) (245 км)
Погода в Талае (Магаданская область, Россия) (286 км)

Пояснения к столбцам:

Ветер - указаны скорость ветра в м/с - средняя за 10 мин, порывы в срок и между сроками (в фигурных скобках) и направление, откуда дует ветер: С - северный, СВ - северо-восточный, В - восточный, ЮВ - юго-восточный, Ю - южный, ЮЗ - юго-западный, З - западный, СЗ - северо-западный.
Видимость - горизонтальная дальность видимости в метрах или километрах. При видимости от 1 до 10 км при отсутствии осадков обычно наблюдается дымка, при ухудшении видимости до 1 км и менее - туман. В сухую погоду видимость может ухудшаться дымом, пылью или мглою.
Явления - указаны атмосферные явления, наблюдавшиеся в срок или в последний час перед сроком; фигурными скобками обозначены явления, наблюдавшиеся между сроками (за 1-3 часа до срока); квадратными скобками обозначены град или гололедные отложения с указанием их диаметра в мм.
Облачность - указаны через наклонную черту общая и нижняя облачность в баллах и высота нижней границы облаков в метрах; квадратными скобками обозначены формы облаков: Ci - перистые, Cs - перисто-слоистые, Cc - перисто-кучевые, Ac - высококучевые, As - высокослоистые, Sc - слоисто-кучевые, Ns - слоисто-дождевые, Cu - кучевые, Cb - кучево-дождевые. Подробнее классификацию облаков см. в Атласе облаков (PDF).
T - Температура воздуха - температура, измеренная на высоте 2 м над землей.
Td - Температура точки росы - температура, при понижении до которой содержащийся в воздухе водяной пар достигнет насыщения.
f - Относительная влажность воздуха - влажноcть воздуха, измеренная на высоте 2 м над землей.
Te - Эффективная температура - температура, которую ощущает одетый по сезону человек в тени. Характеристика душности погоды. При расчете учитывается влияние влажности воздуха и скорости ветра на теплоощущения человека.
Tes - Эффективная температура на солнце - температура, которую ощущает человек, с поправкой на солнечный нагрев. Характеристика знойности погоды. Зависит от высоты солнца над горизонтом, облачности и скорости ветра. Ночью, в пасмурную погоду, а также при ветре 12 м/с и более поправка равна нулю.
P - Атмосферное давление - приведенное к уровню моря атмосферное давление.
Po - Атмосферное давление - измеренное на уровне метеостанции атмосферное давление.
Tmin - Минимальная температура - минимум температуры воздуха на высоте 2 м над землей.
Tmax - Максимальная температура - максимум температуры воздуха на высоте 2 м над землей.
R - Количество осадков - Количество выпавших осадков, мм. При наведении курсора мыши на число - период времени, за который выпало указанное количество осадков.
S - Снежный покров - Высота снежного покрова, см. При наведении курсора мыши на число - состояние снежного покрова и степень покрытия местности в баллах.